ATLAS 5 CENTAUR DEB, 44681

Orbit data source: Space-Track

ATLAS 5 CENTAUR DEB, 44681 is space debris in HEO originally from a launch on Wed, 17 Oct 2018 UTC launched from the Air Force Eastern Test Range (AFETR). Debris objects in space refer to the collection of defunct objects orbiting the Earth. Examples of debris include non-operational satellites, rocket bodies, and fragments generated from explosions, collisions, or faulty payload assembly.

Loading next visibility...
Identifier
44681, 2018-079AT
Orbit
HEO
Last TLE update
11 months ago
Origin
Flag of USUnited Launch Alliance/Lockheed Martin (US)
Manufacturer
ULA Decatur
Mission
Spacecraft
Bus & Motor
Unknown
Mass
Unknown
Launch date (UTC)
2018-10-17 (7 years ago)
Launch vehicle
Unknown
Launch site
Air Force Eastern Test Range (AFETR)
Object type
Payload
Rocket body
Debris
Shape & HBR
Unknown
Radar Cross Section
RCS unknown

Expand to show TLE details & history

TLE from 11 months ago
0 ATLAS 5 CENTAUR DEB
1 44681U 18079AT  24220.04242724 -.00000076  00000-0  00000-0 0  9997
2 44681  10.9126 115.0995 4610348 156.6732 233.4981  1.72113985 32541
Epoch: 2024-08-07T01:01Z
TLE epoch observation values (Epoch: 2024-08-07T01:01:05.713Z)
Latitude
-0°
Longitude
143.74399°
Altitude
33,815.735 km
Speed
2.506 km/s
True Right ascension
07h 40m 16s
True Declination
0° 00' 00"
Sunlit
Object was in daylight at epoch
Visualization orbit readout
Latitude
-0.35583°
Longitude
114.06625°
Altitude
32,165.09 km
Speed
2.67 km/s
Apparent Right ascension
05h 35m 37s
Apparent Declination
-7° 16' 51"
Sunlit
Object is in daylight
Visualization observer readout
Local Sidereal Time
06:22:37
Azimuth
195.663° SSW
Elevation
41.57°
Doppler factor
1
Orbital elements
Apogee altitude
36,596.792 km
Perigee altitude
9,475.004 km
Semi-major axis
29,414.035 km
Eccentricity
0.46103
Inclination
10.9126°
RAAN
115.0995°
Arg. of periapsis
156.6732°
True anomaly
Unknown
Mean anomaly
233.4981°
Eccentric anomaly
Unknown
Mean motion
0.43024 °/min
Orbital period
836.74 mins
BSTAR
0
Loading maneuver chart data...
Loading SW <> Apogee altitude chart data...

ATLAS 5 CENTAUR DEB Visibility forecast

Observer location: undefined°, undefined°

Span
Click to sort rows by Start time (UTC) header in descending order
Start Az.
Max El. time (UTC)
Max El. Az.
Max El.
End time (UTC)
End Az.
560 mins2025-07-05 18:27:05.514Z195.656° SSW2025-07-06 02:26:05.514Z202.522° SW36.902°2025-07-06 03:47:05.514Z127.224° SE
|